RH
18 20 21 15 14 15 16 17 19 20 20 21 22 22 23 23 23 24 24 24 25 25 25 25 25 24 23 22 24 32 31 29 36 40 42 42 43 45 47 46 44 42 40
15 20 19 16 14 15 16 17 19 20 21 22 23 23 24 24 24 24 25 25 26 26 27 27 26 26 25 24 24 27 31 39 40 45 46 47 48 48 49 50 49 47 45
20 18 19 17 15 15 16 17 18 19 22 23 23 24 24 24 25 25 26 27 26 28 29 30 30 29 29 27 26 25 26 34 45 54 55 58 55 52 52 53 54 53 51
31 23 23 20 18 15 16 16 18 18 20 22 24 25 25 25 26 26 27 26 26 28 28 31 32 34 35 34 31 29 26 27 33 43 49 52 39 41 51 52 54 59 58
34 28 26 23 24 18 15 15 17 18 19 20 22 25 28 27 28 27 28 28 28 28 28 30 31 31 33 38 39 39 38 32 29 29 37 45 47 40 46 51 51 55 63
28 25 23 22 25 23 17 15 16 17 19 19 20 22 27 31 31 29 29 30 31 29 28 29 31 31 32 32 36 41 45 48 45 40 31 34 40 40 35 48 49 46 52
32 29 24 22 23 25 19 16 16 16 18 19 20 20 24 32 37 37 34 32 32 33 31 30 30 33 33 32 32 34 41 48 56 55 49 54 36 35 32 31 40 49 51
34 32 29 22 23 26 22 17 16 16 17 19 21 22 24 31 41 45 42 38 35 36 36 34 33 34 36 35 34 34 33 35 43 50 55 56 60 53 65 54 38 32 38
37 38 34 24 25 26 25 20 17 17 18 20 22 24 27 33 41 48 52 49 41 38 38 37 40 38 39 39 38 37 35 34 36 42 47 48 44 45 66 80 72 68 50
45 44 38 27 24 26 28 25 22 20 20 22 26 30 34 39 44 49 56 59 47 37 36 36 38 42 43 47 43 42 39 38 36 37 41 46 48 46 52 61 63 58 68
50 47 38 36 26 28 27 28 29 30 29 33 38 39 44 50 54 58 60 61 41 33 33 24 25 31 42 48 48 50 51 45 44 41 40 41 44 42 44 64 74 76 65
50 48 44 41 34 33 29 32 34 39 39 43 47 47 51 58 62 64 64 40 35 18 14 14 16 17 23 36 44 50 57 56 54 52 49 45 43 48 51 54 54 67 70
50 56 50 40 38 32 29 35 41 46 49 52 54 56 61 66 70 69 37 29 16 15 16 16 18 18 18 26 33 37 50 61 65 65 57 49 45 47 57 59 57 64 73
39 57 52 41 40 36 35 38 46 54 57 60 63 63 68 72 74 39 30 18 16 16 16 17 15 12 11 12 17 26 41 64 61 68 68 61 58 58 57 53 54 63 70
23 49 52 55 52 50 40 44 52 56 63 67 70 70 76 79 47 34 20 18 18 18 18 17 16 13 11 10 10 11 22 50 58 59 66 71 69 67 63 59 59 59 61
18 30 39 53 62 63 55 50 57 63 69 74 78 78 84 70 39 24 20 20 21 21 20 19 19 18 14 11 10 11 15 32 59 53 61 70 69 67 69 69 64 58 58
18 30 40 58 62 63 57 63 59 69 77 86 88 89 85 56 33 24 23 23 23 23 22 22 22 22 19 13 11 24 26 64 62 79 76 99 76 85 83 68 94 81 62
19 18 24 41 52 60 56 61 52 64 85 92 92 89 68 47 34 26 25 25 26 27 26 25 25 26 22 16 13 14 16 64 93 71 94 93 89 99 76 54 77 72 64
20 19 20 40 46 53 57 63 63 68 76 96 98 83 70 47 44 37 32 30 31 31 30 28 27 27 26 21 14 13 13 28 97 46 27 44 77 32 69 32 24 25 19
25 24 21 21 47 55 65 76 68 88 85 98 99 84 71 58 57 55 52 46 42 40 37 36 30 28 27 24 17 13 13 15 14 15 18 18 17 21 19 20 19 18 16
30 29 30 25 46 60 73 90 80 71 70 72 97 90 83 80 77 68 66 62 58 53 48 45 36 32 29 25 18 15 14 14 14 13 14 16 16 15 16 16 14 12 11
32 32 32 31 47 69 88 92 87 80 85 89 94 96 100 96 93 89 88 77 74 66 61 54 46 37 32 26 21 17 16 18 16 14 13 13 14 13 12 12 12 12 13
34 34 36 36 48 69 88 95 92 90 92 96 97 99 98 97 93 87 90 78 61 60 65 66 62 52 39 29 22 19 18 17 17 16 15 14 13 14 14 13 14 14 16
37 36 39 46 56 68 86 92 93 99 99 95 98 100 100 97 96 93 80 59 44 37 42 55 62 63 55 35 25 20 17 16 16 16 17 17 16 16 15 15 17 19 18
39 40 40 47 60 72 84 81 83 91 94 97 96 99 85 81 77 60 49 49 45 40 39 39 47 61 62 42 27 21 20 18 16 16 17 18 18 17 16 16 15 16 16
42 43 47 49 67 84 92 91 95 79 63 78 82 81 77 69 67 53 26 30 33 35 32 33 39 57 67 56 34 22 22 20 18 20 21 20 19 19 18 18 15 14 15
Wind_Speed
6 4 3 3 3 2 2 2 2 2 3 3 4 5 5 4 4 6 7 8 8 9 9 9 10 10 11 13 14 13 11 9 9 9 9 9 11 11 12 12 13 13 14
9 6 5 4 4 3 3 4 4 3 2 2 3 3 3 3 3 4 4 6 7 7 8 7 7 8 8 10 11 12 12 10 9 8 7 8 9 11 11 12 11 12 12
8 8 5 5 5 6 6 6 7 6 5 4 3 3 3 2 1 2 3 4 6 6 6 6 6 6 6 7 8 9 9 10 8 7 7 6 6 7 9 10 10 10 11
6 7 6 5 6 8 8 8 9 8 8 7 6 6 4 3 2 1 1 2 4 5 5 5 6 6 5 5 5 5 6 6 6 6 6 5 5 4 6 7 9 9 9
2 4 6 5 6 10 10 9 10 10 10 9 8 8 6 6 5 3 3 3 4 3 4 5 5 5 5 5 4 3 3 3 3 4 4 4 3 3 3 4 6 7 8
4 4 6 6 5 9 11 10 11 12 12 11 10 10 9 8 8 6 5 5 5 5 5 6 7 7 6 5 5 4 3 1 1 1 2 2 1 1 1 0 3 4 5
2 3 5 7 5 9 12 12 12 13 13 12 11 11 10 9 9 8 7 7 8 8 7 8 9 8 9 8 7 5 3 3 2 1 2 1 2 1 1 1 1 1 3
5 7 7 7 7 9 11 13 14 14 14 13 12 12 12 11 11 10 9 9 10 9 10 10 11 11 11 11 11 9 7 6 4 4 5 4 2 3 4 4 4 5 3
10 9 9 10 9 10 12 15 15 15 15 14 14 13 13 13 12 11 11 11 11 11 11 13 13 14 15 14 14 13 12 10 9 7 7 7 6 6 7 7 5 5 6
13 11 11 10 10 12 14 17 16 16 16 16 15 15 14 14 13 13 12 13 14 14 14 15 16 16 17 18 18 17 15 14 13 12 10 10 9 10 10 9 8 8 8
13 12 13 12 11 13 15 18 18 18 17 17 16 16 15 15 15 15 15 15 15 16 17 18 18 19 20 20 21 21 19 18 16 16 16 14 12 12 13 12 11 9 10
13 14 13 15 12 17 18 19 20 19 18 18 18 17 17 16 16 17 16 15 16 17 17 19 20 21 22 23 23 24 23 20 20 19 20 19 17 16 14 14 15 15 12
15 17 17 16 15 17 18 19 21 21 20 20 19 18 18 18 18 17 16 16 16 16 18 20 21 22 23 23 24 25 25 23 23 22 21 22 20 20 19 18 16 16 15
20 18 18 19 20 19 19 20 22 22 21 21 21 20 20 19 19 17 16 15 16 17 18 19 20 20 21 21 22 25 25 24 25 23 22 21 21 21 22 22 20 19 21
17 22 21 21 22 20 20 22 23 23 23 22 22 22 22 21 19 17 16 15 15 16 17 18 19 19 18 19 20 22 23 24 24 24 22 22 24 24 24 25 23 25 25
15 20 21 23 22 21 20 22 23 25 24 23 23 24 23 21 19 17 16 14 14 14 15 17 18 18 17 18 18 18 19 21 24 24 24 25 23 27 29 28 28 29 30
14 19 20 22 21 20 22 23 23 25 26 26 26 25 23 21 18 16 16 14 14 13 14 16 17 17 17 17 18 16 14 15 19 19 18 18 26 24 26 27 26 31 29
14 15 21 24 22 21 22 23 21 25 27 27 27 25 21 23 18 17 16 15 15 15 15 16 18 17 17 16 18 17 17 22 23 25 24 29 32 24 28 27 26 30 29
12 14 19 24 21 22 22 21 23 25 30 29 28 22 26 23 19 19 19 18 17 17 16 17 19 19 16 18 17 18 19 16 22 23 23 25 29 24 26 25 26 25 25
13 14 19 26 21 22 24 24 22 20 29 16 17 19 22 23 22 21 21 20 19 19 20 20 21 22 19 18 19 19 19 19 21 21 21 22 22 22 22 22 21 21 20
18 17 18 25 20 22 26 21 20 21 28 29 18 24 29 27 21 19 19 21 21 22 23 24 25 25 23 21 20 21 20 20 20 20 19 18 19 19 19 19 19 18 19
24 25 24 22 21 22 26 24 23 24 30 40 31 29 24 32 22 17 19 22 31 28 28 27 27 27 27 25 24 23 23 22 22 20 20 20 20 19 18 18 18 19 19
12 17 22 24 20 20 26 23 21 23 34 29 24 37 35 27 21 19 20 22 27 30 31 31 30 30 30 28 27 27 26 26 22 22 21 20 20 19 18 17 18 19 20
8 10 13 18 20 21 23 23 24 25 18 15 19 30 25 23 19 17 24 23 27 30 32 33 33 32 33 31 31 29 29 28 27 25 24 21 20 19 19 17 16 18 19
10 11 11 12 16 18 22 24 25 28 20 9 15 17 12 12 15 20 20 24 24 27 28 27 30 32 34 35 33 30 32 31 30 29 28 26 25 24 23 22 19 19 19
16 17 15 9 14 15 17 18 22 24 21 16 21 24 22 19 18 20 26 27 29 29 27 32 29 29 33 36 35 34 33 34 33 32 30 30 30 30 28 26 24 23 22
Wind_Direction
220 195 181 179 168 151 140 156 151 138 137 130 116 114 109 102 84 71 65 60 48 45 53 56 57 57 58 63 70 74 75 88 95 99 102 103 104 99 94 91 89 87 85
217 237 216 201 189 216 209 199 205 218 193 179 146 143 144 130 95 80 72 71 56 38 34 30 42 51 56 65 72 75 75 80 90 94 96 100 102 104 101 94 90 88 86
207 227 239 223 215 230 224 213 216 225 219 217 216 213 207 179 121 72 60 54 57 42 32 22 24 34 40 53 67 79 79 81 99 96 87 85 93 101 105 108 103 97 93
211 216 236 237 238 237 233 222 222 232 233 234 238 245 251 257 240 261 355 4 39 41 21 15 10 13 24 33 52 62 79 81 88 92 85 83 74 89 112 117 117 112 102
255 284 236 249 249 242 241 230 227 234 236 240 246 254 257 266 265 275 294 318 335 6 352 354 357 353 358 9 13 34 61 74 68 79 88 95 84 62 97 126 128 127 115
258 271 245 251 249 239 240 235 234 236 236 242 246 253 255 259 268 276 282 291 299 309 323 326 328 333 332 333 337 347 350 35 49 72 112 76 129 95 26 140 137 125 125
264 256 245 247 251 238 238 237 241 241 240 242 245 250 254 257 267 274 282 286 290 296 303 308 310 312 312 311 309 311 305 299 280 263 210 215 240 227 265 277 265 197 137
271 242 244 246 244 237 239 238 242 245 245 245 247 249 255 257 261 270 279 283 285 289 296 298 299 298 294 295 295 293 288 277 261 253 252 242 247 238 241 230 241 258 244
248 248 247 241 239 239 237 234 238 244 247 247 249 250 253 256 261 266 275 280 280 281 285 289 288 287 285 283 284 283 283 282 278 264 264 267 259 251 237 249 249 264 270
258 257 255 255 248 242 239 235 236 240 244 246 247 251 251 255 263 266 268 272 276 280 282 283 282 281 280 279 277 276 273 269 271 272 264 257 260 264 266 248 257 268 264
266 267 259 268 252 260 241 234 235 239 242 247 250 251 252 255 259 262 265 270 275 280 281 282 282 279 276 272 271 271 267 268 265 266 267 266 264 266 268 268 266 266 256
259 264 260 264 267 269 245 237 237 241 243 247 249 251 253 257 260 263 265 268 274 279 283 283 280 278 273 270 269 266 265 263 263 260 262 263 262 260 262 261 260 263 261
249 257 254 252 261 265 255 244 241 243 244 248 251 252 256 258 259 261 262 268 274 278 280 280 280 279 275 268 266 264 262 261 257 257 258 261 263 263 259 257 261 262 259
244 242 250 251 256 261 255 248 243 245 246 248 251 252 254 256 256 256 263 271 275 278 281 286 287 284 281 275 259 258 257 256 259 257 256 258 258 257 263 263 263 261 259
246 243 244 249 258 264 263 253 249 249 249 250 251 251 252 252 249 254 260 266 273 281 290 293 295 294 286 279 272 262 253 249 251 255 253 246 246 252 255 259 259 260 265
242 242 247 251 253 258 257 258 254 249 250 250 251 251 250 247 244 251 257 264 275 286 292 295 297 298 297 289 278 266 257 250 248 253 252 254 255 253 253 253 257 260 263
235 233 242 250 258 260 265 259 254 254 252 250 247 248 249 242 246 253 258 265 276 286 289 290 290 292 296 296 292 278 265 256 258 247 250 256 246 244 256 260 251 268 262
258 244 242 250 250 254 252 262 257 260 259 253 249 247 246 244 246 253 256 261 269 277 281 286 288 291 293 292 289 278 268 241 248 247 244 244 257 256 262 265 270 264 271
272 260 246 245 249 254 255 261 258 257 255 248 244 237 240 240 247 253 257 257 263 272 278 282 285 284 287 287 284 277 271 262 253 267 269 262 266 264 260 263 265 262 264
275 277 272 250 254 261 258 250 257 258 266 249 233 232 239 244 248 251 257 262 266 274 277 280 280 279 278 278 278 274 270 265 267 264 262 266 269 266 263 262 262 263 263
275 275 273 265 257 264 258 249 250 262 271 269 250 241 234 240 250 258 264 267 272 270 272 273 274 275 274 270 266 268 268 267 265 269 268 265 263 267 265 263 261 259 261
271 272 265 261 256 256 251 244 254 267 276 287 256 255 249 235 240 249 269 279 267 271 270 271 271 273 273 271 267 263 261 263 262 266 271 273 270 265 262 262 262 263 263
293 280 262 253 251 251 249 252 262 269 282 283 279 256 251 245 254 255 265 282 289 286 278 271 268 268 271 270 266 264 262 262 268 266 266 269 271 272 270 262 261 264 265
332 323 268 254 257 253 251 255 273 283 281 288 269 249 242 249 248 259 279 286 280 282 281 277 271 265 265 266 266 264 262 262 262 265 266 267 270 270 269 269 267 267 268
0 4 0 279 263 262 264 270 276 288 293 314 296 259 286 275 291 295 282 281 287 296 292 280 271 267 263 263 263 263 264 262 257 258 260 263 264 267 268 268 267 266 266
335 336 351 331 266 266 280 297 300 300 323 324 297 287 278 260 267 278 280 277 279 277 276 283 284 269 261 259 258 260 261 262 261 259 257 258 259 261 262 262 264 265 265